DW0108 Weather Reports


Display with metric or nautical units.
time (UTC)temp
F
wind
direction
speed
MPH
gust
MPH
rain 1hr
in
rain 24hr
in
rain mn
in
humidity
%
barometer
mb
20260510092838 73 98 0.0 1.0 0.00 0.00 0.00 85 1012.5
20260510091831 73 77 0.0 1.0 0.00 0.00 0.00 84 1011.8
20260510085839 74 88 0.0 1.0 0.00 0.00 0.00 82 1011.8
20260510084848 74 62 0.0 1.0 0.00 0.00 0.00 82 1012.1
20260510083828 73 208 0.0 1.0 0.00 0.00 0.00 82 1011.8
20260510081831 73 87 0.0 1.0 0.00 0.00 0.00 82 1011.1
20260510080848 73 96 0.0 0.0 0.00 0.00 0.00 80 1010.8
20260510075821 73 61 0.0 1.0 0.00 0.00 0.00 80 1010.4
20260510074817 74 77 0.0 2.0 0.00 0.00 0.00 79 1010.4
20260510073817 75 134 0.0 2.0 0.00 0.00 0.00 78 1010.4
20260510072809 75 140 1.0 2.0 0.00 0.00 0.00 75 1010.1
20260510071833 75 142 0.0 2.0 0.00 0.00 0.00 75 1010.4
20260510070817 76 126 1.0 3.0 0.00 0.00 0.00 73 1010.8
20260510065824 76 139 1.0 2.0 0.00 0.00 0.00 73 1010.8
20260510064838 76 77 0.0 2.0 0.00 0.00 0.00 72 1011.1
20260510062825 75 44 1.0 2.0 0.00 0.00 0.00 77 1011.1
20260510061827 75 51 0.0 1.0 0.00 0.00 0.00 74 1010.1
20260510060847 76 135 0.0 2.0 0.00 0.00 0.00 72 1009.8
20260510055837 77 162 0.0 4.0 0.00 0.00 0.00 70 1009.8
20260510054815 77 140 0.0 2.0 0.00 0.00 0.00 69 1009.4
20260510053829 78 151 1.0 3.0 0.00 0.00 0.00 67 1009.4
20260510052830 78 166 1.0 3.0 0.00 0.00 0.00 66 1009.1
20260510045824 79 160 3.0 5.0 0.00 0.00 0.00 64 1009.1
20260510044813 79 154 2.0 5.0 0.00 0.00 0.00 63 1008.8
20260510043822 79 154 2.0 4.0 0.00 0.00 0.00 62 1008.8
20260510042831 79 158 2.0 5.0 0.00 0.00 0.00 60 1009.1
20260510041836 79 157 2.0 4.0 0.00 0.00 0.00 59 1009.1
20260510040818 79 164 2.0 4.0 0.00 0.00 0.00 60 1009.1
20260510035827 79 149 1.0 3.0 0.00 0.00 0.00 61 1009.1
20260510032837 80 149 0.0 2.0 0.00 0.00 0.00 63 1009.4
20260510031814 80 133 0.0 2.0 0.00 0.00 0.00 63 1009.4
20260510030814 80 137 0.0 1.0 0.00 0.00 0.00 62 1009.4
20260510025829 80 118 0.0 1.0 0.00 0.00 0.00 60 1009.4
20260510024805 78 73 0.0 2.0 0.00 0.00 0.00 61 1009.1
20260510023826 81 127 0.0 1.0 0.00 0.00 0.00 55 1009.4
20260510022809 81 126 0.0 2.0 0.00 0.00 0.00 55 1009.1
20260510021843 82 117 0.0 1.0 0.00 0.00 0.00 55 1009.1
20260510020826 82 140 0.0 2.0 0.00 0.00 0.00 53 1008.8
20260510015846 83 147 0.0 2.0 0.00 0.00 0.00 53 1009.1
20260510014805 83 143 0.0 1.0 0.00 0.00 0.00 53 1008.8
20260510013811 84 155 1.0 2.0 0.00 0.00 0.00 51 1008.4
20260510012846 84 156 1.0 2.0 0.00 0.00 0.00 50 1008.4
20260510011846 85 156 1.0 2.0 0.00 0.00 0.00 51 1008.1
20260510010820 85 138 0.0 2.0 0.00 0.00 0.00 49 1008.1
20260510005842 86 150 0.0 2.0 0.00 0.00 0.00 49 1008.1
20260510004835 86 139 0.0 2.0 0.00 0.00 0.00 49 1008.1
20260510002832 87 158 1.0 2.0 0.00 0.00 0.00 46 1008.1
20260510001821 88 161 1.0 3.0 0.00 0.00 0.00 46 1008.1
20260510000833 88 159 1.0 2.0 0.00 0.00 0.00 45 1007.7
20260509235808 88 158 1.0 4.0 0.00 0.00 0.01 44 1008.1
20260509234832 88 168 1.0 3.0 0.00 0.00 0.01 44 1008.1
20260509233805 89 181 1.0 3.0 0.00 0.00 0.01 46 1008.1
20260509232822 89 154 1.0 4.0 0.00 0.00 0.01 45 1008.1
20260509231807 89 157 0.0 2.0 0.00 0.00 0.01 44 1008.1
20260509230824 89 62 0.0 1.0 0.00 0.00 0.01 39 1008.1
20260509225807 90 86 1.0 2.0 0.00 0.00 0.01 39 1008.1
20260509224825 91 180 0.0 1.0 0.00 0.00 0.01 39 1008.1
20260509222815 91 84 0.0 1.0 0.00 0.00 0.01 38 1008.4
20260509221806 90 170 0.0 2.0 0.00 0.00 0.01 39 1008.4
20260509220839 90 227 0.0 2.0 0.00 0.00 0.01 38 1008.1
20260509215834 90 113 0.0 2.0 0.00 0.00 0.01 38 1008.1
20260509214824 89 177 0.0 3.0 0.00 0.00 0.01 36 1008.1
20260509213819 90 89 0.0 2.0 0.00 0.00 0.01 38 1008.4
20260509212818 90 139 1.0 2.0 0.00 0.00 0.01 38 1008.4
20260509211813 89 246 0.0 2.0 0.00 0.00 0.01 37 1008.4
20260509210842 90 125 0.0 2.0 0.00 0.00 0.01 36 1008.8
20260509205825 89 120 0.0 2.0 0.00 0.00 0.01 35 1008.8
20260509204820 89 43 1.0 3.0 0.00 0.00 0.01 33 1009.1
20260509203848 89 110 1.0 2.0 0.00 0.00 0.01 39 1009.4
20260509201813 90 59 1.0 3.0 0.00 0.00 0.01 40 1009.4
20260509200805 88 34 1.0 3.0 0.00 0.00 0.01 39 1009.4
20260509194813 88 81 1.0 3.0 0.00 0.00 0.01 47 1009.8
20260509193819 88 85 1.0 4.0 0.00 0.00 0.01 44 1009.8
20260509192848 88 131 1.0 4.0 0.00 0.00 0.01 49 1009.8
20260509191841 87 214 1.0 3.0 0.00 0.00 0.01 51 1009.8
20260509185826 86 213 2.0 4.0 0.00 0.00 0.01 50 1010.1
20260509184831 86 278 2.0 4.0 0.00 0.00 0.01 51 1010.1
20260509183847 86 237 1.0 3.0 0.00 0.00 0.01 51 1010.1
20260509182824 86 266 1.0 3.0 0.00 0.00 0.01 51 1010.4
20260509181843 86 196 1.0 4.0 0.00 0.00 0.01 51 1010.4
20260509180835 85 286 1.0 3.0 0.00 0.00 0.01 53 1010.8
20260509175829 85 261 1.0 2.0 0.00 0.00 0.01 54 1010.8
20260509174813 85 156 0.0 3.0 0.00 0.00 0.01 56 1010.8
20260509172819 84 248 1.0 3.0 0.00 0.00 0.01 57 1010.8
20260509171820 84 228 1.0 3.0 0.00 0.00 0.01 57 1011.1
20260509170845 83 188 1.0 3.0 0.00 0.00 0.01 57 1011.1
20260509165813 82 265 2.0 5.0 0.00 0.00 0.01 60 1011.1
20260509164810 82 236 2.0 4.0 0.00 0.00 0.01 61 1011.1
20260509163807 82 241 2.0 5.0 0.00 0.00 0.01 60 1011.1
20260509162816 81 328 3.0 6.0 0.00 0.00 0.01 59 1011.5
20260509160811 81 237 1.0 3.0 0.00 0.00 0.01 62 1011.5
20260509155832 80 266 2.0 4.0 0.00 0.00 0.01 64 1011.5
20260509154848 80 267 2.0 5.0 0.00 0.00 0.01 65 1011.5
20260509153834 79 299 2.0 4.0 0.00 0.00 0.01 64 1011.5
20260509152808 79 210 1.0 2.0 0.00 0.00 0.01 66 1011.1
20260509151816 79 115 2.0 4.0 0.00 0.00 0.01 65 1011.1
20260509150826 77 240 2.0 4.0 0.00 0.00 0.01 71 1011.1
20260509143829 76 217 2.0 4.0 0.00 0.00 0.01 71 1011.1
20260509142837 76 269 3.0 5.0 0.00 0.00 0.01 71 1011.1
20260509141805 75 273 3.0 5.0 0.00 0.00 0.01 75 1011.5
20260509140844 74 296 4.0 7.0 0.00 0.00 0.01 80 1011.5
20260509135805 72 326 3.0 6.0 0.00 0.00 0.01 82 1011.5
20260509134838 72 327 3.0 5.0 0.00 0.00 0.01 82 1011.5
20260509133819 72 318 2.0 4.0 0.00 0.00 0.01 82 1011.5
20260509132842 72 327 2.0 4.0 0.00 0.00 0.01 81 1011.1
20260509131819 71 341 2.0 5.0 0.00 0.00 0.01 82 1011.1
20260509130847 70 331 2.0 4.0 0.00 0.00 0.01 82 1011.5
20260509125819 69 296 2.0 4.0 0.00 0.00 0.01 83 1011.1
20260509124812 69 292 1.0 3.0 0.00 0.00 0.01 83 1011.5
20260509123833 69 227 1.0 3.0 0.00 0.00 0.01 83 1011.1
20260509122847 70 297 0.0 1.0 0.00 0.00 0.01 84 1011.1
20260509120820 68 174 1.0 3.0 0.00 0.00 0.01 86 1011.1
20260509115839 68 147 0.0 2.0 0.00 0.00 0.01 86 1010.8
20260509112822 68 148 0.0 1.0 0.00 0.00 0.01 83 1010.4
20260509111815 69 132 0.0 1.0 0.00 0.00 0.01 83 1010.1
20260509110812 69 38 0.0 1.0 0.00 0.00 0.01 82 1010.1
20260509105840 69 307 1.0 3.0 0.00 0.00 0.01 81 1009.8
20260509104825 69 335 2.0 4.0 0.00 0.00 0.01 80 1010.1
20260509103806 68 339 2.0 4.0 0.00 0.00 0.01 79 1010.1
20260509102827 69 310 2.0 5.0 0.00 0.00 0.01 77 1010.1
20260509101836 69 282 1.0 2.0 0.00 0.00 0.01 82 1009.8
20260509100820 70 187 1.0 3.0 0.00 0.00 0.01 85 1010.1
20260509094822 71 326 3.0 6.0 0.00 0.00 0.01 85 1009.8